Wind_Speed
15 15 15 16 16 16 16 17 17 17 17 17 17 17 16 16 17 16 15 15 15 16 15 13 14 14 13 12 12 13 12 11 11 11 11 11 11 11 11 10 10 10 11 11
15 15 15 16 16 16 16 16 17 16 16 17 17 16 16 16 17 16 15 15 15 15 15 14 14 14 14 14 13 13 12 12 11 12 12 11 11 11 11 11 11 11 12 12
15 16 16 16 16 16 16 16 17 17 17 17 16 16 17 16 16 15 14 14 15 15 15 15 14 14 13 13 13 13 12 12 12 12 12 11 11 11 11 12 12 12 12 12
16 17 17 17 16 16 16 16 17 16 16 16 16 16 16 16 15 15 14 15 15 15 15 14 14 13 13 13 13 12 12 12 12 12 12 12 12 11 11 11 12 12 12 12
16 16 16 16 16 16 16 17 16 16 16 16 16 16 15 17 16 15 14 14 15 15 15 14 13 13 13 13 13 13 12 12 11 12 11 11 11 11 11 11 11 11 11 12
16 16 16 16 16 16 16 16 16 15 16 16 16 16 15 16 15 14 15 15 14 14 14 13 13 13 13 13 13 12 12 12 12 11 11 11 11 11 11 11 11 11 12 12
17 17 17 16 16 16 16 15 14 14 15 16 16 16 14 15 14 14 14 14 14 14 13 13 13 13 12 12 12 12 12 11 11 12 11 11 12 11 11 11 12 12 12 11
17 17 17 16 16 16 16 15 15 15 15 15 16 14 13 14 13 13 14 13 13 13 13 12 12 12 12 13 12 12 12 12 12 13 13 12 11 12 12 11 11 11 11 11
17 17 17 17 16 16 16 16 16 16 16 15 16 15 13 14 14 13 13 13 12 12 13 12 13 12 13 13 13 13 13 13 13 13 13 12 11 12 12 12 12 11 11 11
18 18 17 18 17 17 17 17 17 16 16 15 15 14 13 13 14 13 13 13 13 13 13 14 14 13 13 13 13 14 14 14 14 13 13 13 12 12 12 12 11 11 10 10
19 19 18 18 17 17 17 17 16 16 17 15 14 14 14 14 13 13 14 14 14 14 14 14 14 15 14 15 15 15 14 14 14 14 13 12 12 11 12 12 12 11 11 11
19 19 19 19 18 18 18 18 17 17 17 15 14 15 14 14 13 14 14 14 14 14 14 15 14 14 14 15 15 14 14 14 15 15 14 13 14 14 13 13 13 13 13 12
20 19 19 19 19 19 19 19 18 17 17 16 15 15 15 14 14 14 14 15 15 15 15 14 14 14 15 16 15 15 15 15 15 15 15 15 15 14 14 14 15 14 14 13
22 21 20 20 20 21 20 20 19 19 18 17 16 16 16 16 16 15 14 15 15 15 15 15 15 15 15 15 16 15 16 16 15 15 16 16 16 15 15 15 16 16 15 15
22 22 22 21 21 21 21 21 20 20 19 18 16 15 15 15 15 15 16 16 16 16 16 16 16 16 16 16 16 16 17 17 17 17 17 17 17 16 16 16 16 16 15 15
23 22 22 22 21 21 21 20 19 19 18 17 16 15 16 15 15 16 17 17 17 17 16 16 16 16 17 17 16 17 17 17 18 18 18 18 17 17 17 17 17 17 16 15
23 22 22 22 21 21 22 19 19 18 19 17 16 15 15 15 15 15 16 17 17 15 15 16 16 16 17 16 16 16 16 16 17 17 17 17 16 16 16 17 17 17 16 16
23 23 23 22 22 23 22 20 20 19 18 18 17 17 16 16 16 16 16 17 17 17 17 17 16 16 17 17 17 17 17 17 18 17 17 17 16 16 16 17 17 16 15 15
23 23 22 22 23 23 22 21 21 20 19 19 19 19 18 17 17 18 17 17 18 18 18 17 17 17 17 17 18 19 19 18 18 18 18 17 17 17 17 17 17 17 17 18
23 22 22 22 23 23 22 21 20 20 21 20 20 21 20 19 19 18 19 18 18 19 19 19 18 18 18 17 17 18 18 18 18 18 17 17 17 17 17 18 18 19 19 20
23 23 22 23 23 23 23 21 21 21 22 22 21 21 21 20 20 20 20 19 19 19 19 19 18 18 18 18 18 18 18 18 18 18 17 17 18 18 18 19 19 19 20 21
23 23 23 23 24 24 22 22 22 22 23 22 22 21 21 20 20 20 20 19 19 19 19 19 18 18 19 19 19 18 18 19 19 18 18 19 19 19 19 19 19 20 21 21
22 22 23 24 24 24 22 22 22 23 23 22 21 21 20 20 20 20 20 19 19 19 19 19 19 20 20 20 20 20 20 19 19 20 20 19 19 19 19 20 20 20 21 21
23 22 22 23 24 24 23 22 22 22 22 21 21 21 21 21 21 20 20 19 19 19 20 20 20 21 21 20 20 20 20 20 21 21 21 20 20 20 20 20 20 20 20 20
22 22 22 22 22 23 22 22 21 21 21 21 20 20 20 21 21 20 20 20 21 21 20 21 21 21 21 21 21 21 21 21 20 20 21 21 21 21 21 21 21 21 21 21
20 21 21 20 20 20 21 21 22 22 22 22 21 20 20 21 20 20 20 20 21 21 21 21 21 21 21 21 21 21 21 21 20 21 21 21 22 22 22 21 22 22 22 22
Wind_Direction
255 253 254 254 254 254 258 261 265 270 273 274 273 272 274 273 268 267 269 271 267 263 265 269 271 276 281 282 281 273 274 276 279 278 279 280 281 278 276 275 272 266 263 265
253 252 253 254 256 258 260 262 265 271 272 274 276 274 276 272 268 265 266 271 272 266 265 266 269 272 275 278 279 274 272 273 273 277 277 274 275 274 271 273 274 271 268 268
252 253 254 256 258 261 261 262 265 270 273 275 278 278 278 273 269 265 264 265 269 268 268 266 268 270 275 277 278 272 274 275 274 274 276 273 275 274 274 272 273 277 275 272
250 253 254 256 257 259 260 264 267 270 274 276 275 278 278 274 267 264 263 262 263 266 267 269 270 275 278 276 275 274 274 274 274 275 277 275 273 272 273 273 274 275 274 274
251 254 257 256 257 260 262 265 268 269 272 276 277 276 276 273 263 262 261 260 260 265 270 271 271 274 277 274 272 272 272 273 276 277 275 273 273 274 273 273 274 275 276 276
247 251 253 253 257 260 261 263 266 268 273 277 279 276 272 271 263 261 258 257 259 262 264 267 268 272 276 272 270 268 271 274 278 279 276 274 275 273 273 274 274 276 278 281
249 252 252 251 254 258 258 261 266 269 271 272 276 274 269 267 262 259 255 255 254 258 259 263 265 268 270 271 269 268 275 278 279 278 278 276 276 274 273 277 276 278 280 281
248 250 252 251 252 255 255 256 260 264 269 272 276 274 268 266 262 259 257 256 253 254 254 258 262 262 265 267 268 269 272 276 277 278 277 279 275 275 276 277 279 278 281 281
246 247 248 249 250 252 253 253 257 264 270 274 277 277 269 263 259 254 252 252 251 251 253 257 261 264 267 268 267 269 271 273 275 276 274 273 274 275 277 280 278 278 281 282
247 250 250 250 251 253 253 255 258 260 266 269 273 274 269 261 254 249 250 251 253 254 258 259 260 264 266 268 270 271 272 271 272 271 270 271 273 274 275 279 282 285 283 282
246 249 252 252 252 253 254 256 257 258 261 268 270 270 265 261 253 248 249 253 256 259 261 260 261 262 263 266 268 269 268 268 269 269 269 271 272 274 276 279 281 282 282 281
244 247 251 253 253 251 253 257 259 260 264 266 270 267 263 258 252 252 252 254 260 262 265 264 263 262 262 266 265 265 265 266 267 267 268 269 273 274 273 277 279 279 280 281
246 247 250 253 255 254 255 257 258 259 262 264 265 264 262 256 250 251 253 257 258 261 263 261 263 262 262 264 264 263 262 264 266 266 268 269 273 275 272 274 275 277 278 279
247 248 248 249 251 254 256 257 257 258 260 261 263 261 258 256 253 250 251 255 258 261 263 263 263 263 265 265 265 263 260 263 266 268 270 270 272 273 273 273 274 274 276 277
246 247 248 250 253 254 257 260 259 257 258 257 259 258 256 252 252 251 252 254 256 259 260 259 262 264 265 266 266 264 263 262 265 267 269 270 270 270 272 273 273 274 276 276
245 246 248 250 252 253 256 259 259 257 254 253 255 255 256 254 253 254 254 254 256 257 256 258 261 262 264 263 263 263 262 263 265 266 267 269 268 269 270 270 271 273 274 274
244 244 246 249 250 252 254 255 255 254 252 251 252 254 255 253 253 255 256 257 258 259 260 263 265 264 262 263 265 261 262 264 266 267 268 271 269 269 268 268 270 270 272 274
243 244 245 246 247 250 255 254 254 254 252 252 251 252 253 250 252 258 259 260 261 260 261 262 264 266 268 267 266 266 267 267 268 268 268 269 270 270 270 268 269 270 269 272
242 242 244 244 247 251 251 251 252 252 253 253 252 251 252 253 254 257 257 258 259 259 261 263 265 266 267 268 267 266 265 266 267 267 269 272 272 273 272 269 269 269 269 273
239 241 242 243 245 249 250 250 251 251 252 252 254 254 254 254 254 256 258 258 259 259 260 261 261 263 266 268 268 267 265 267 268 270 273 275 277 276 274 274 272 270 271 274
237 239 240 242 245 248 249 251 251 250 251 251 253 255 256 253 253 255 257 258 258 259 260 261 261 263 265 267 269 268 267 267 267 269 272 275 279 280 279 278 277 275 275 276
238 239 240 242 244 248 250 250 249 251 252 252 252 253 253 251 251 251 254 255 257 257 257 258 260 263 265 267 268 269 268 268 268 270 273 275 277 278 280 280 279 279 279 279
238 239 240 242 245 248 252 252 250 250 249 249 250 248 249 250 250 251 252 254 257 257 257 257 258 262 264 266 267 268 268 267 268 270 271 273 274 275 278 279 278 279 281 280
239 241 245 246 246 249 251 249 247 247 249 250 249 248 248 251 252 251 253 255 256 258 259 259 260 263 264 267 270 270 271 269 267 269 270 271 273 274 275 278 277 277 278 279
241 243 245 247 248 248 247 245 244 246 246 246 247 246 247 249 252 252 255 258 259 260 260 261 262 263 265 267 269 270 271 270 267 268 269 270 271 274 275 276 277 278 279 279
245 245 243 244 244 245 244 245 246 246 245 247 247 248 251 252 252 254 256 257 258 260 261 261 261 263 264 266 268 268 269 269 270 269 269 271 272 274 275 276 277 277 278 280
Height
5838 5839 5840 5842 5843 5845 5845 5846 5846 5846 5845 5845 5844 5844 5844 5844 5843 5842 5842 5842 5842 5842 5842 5841 5841 5841 5840 5839 5838 5838 5837 5836 5836 5835 5834 5834 5834 5833 5833 5833 5832 5832 5831 5831
5834 5835 5837 5837 5839 5840 5840 5841 5842 5842 5841 5841 5840 5840 5840 5839 5838 5838 5839 5839 5838 5838 5838 5838 5838 5837 5837 5836 5835 5835 5834 5833 5832 5832 5832 5831 5830 5830 5830 5829 5829 5829 5828 5828
5830 5832 5832 5833 5834 5835 5836 5837 5838 5838 5837 5837 5837 5836 5836 5835 5834 5834 5835 5835 5834 5834 5834 5834 5834 5834 5833 5833 5832 5832 5831 5830 5829 5829 5828 5827 5827 5827 5826 5826 5826 5826 5825 5824
5825 5827 5828 5829 5830 5831 5832 5833 5833 5833 5833 5833 5834 5833 5832 5831 5831 5831 5831 5831 5831 5830 5831 5830 5830 5830 5830 5829 5829 5828 5828 5827 5827 5826 5825 5825 5824 5824 5823 5823 5822 5822 5822 5821
5822 5823 5824 5825 5826 5827 5828 5829 5829 5829 5829 5829 5829 5829 5829 5827 5827 5827 5827 5827 5827 5827 5827 5827 5827 5827 5827 5826 5825 5825 5825 5824 5824 5823 5823 5822 5822 5821 5820 5820 5819 5819 5819 5818
5817 5818 5819 5821 5822 5823 5824 5825 5824 5824 5825 5825 5825 5824 5824 5823 5823 5823 5823 5823 5823 5823 5823 5823 5824 5824 5824 5823 5823 5823 5822 5822 5821 5820 5820 5819 5819 5818 5818 5817 5817 5816 5816 5815
5813 5814 5815 5816 5817 5818 5819 5820 5821 5822 5822 5822 5821 5820 5820 5819 5819 5819 5819 5819 5819 5819 5820 5820 5820 5821 5821 5821 5821 5820 5820 5819 5819 5818 5817 5817 5816 5816 5815 5815 5814 5814 5813 5813
5809 5811 5811 5811 5813 5814 5815 5816 5818 5819 5819 5819 5816 5815 5817 5815 5814 5814 5814 5815 5815 5816 5816 5817 5817 5817 5817 5817 5818 5817 5817 5817 5816 5815 5815 5814 5814 5813 5813 5813 5812 5811 5811 5810
5805 5807 5807 5808 5808 5810 5811 5811 5813 5814 5814 5814 5813 5812 5811 5811 5811 5811 5811 5811 5812 5812 5813 5814 5814 5814 5814 5814 5814 5814 5814 5814 5813 5813 5812 5812 5811 5811 5810 5810 5809 5809 5808 5807
5800 5802 5803 5803 5804 5805 5807 5807 5808 5809 5809 5810 5810 5809 5809 5807 5807 5808 5808 5808 5809 5809 5810 5810 5810 5811 5811 5811 5811 5811 5811 5811 5810 5810 5809 5809 5808 5808 5808 5807 5806 5806 5805 5804
5795 5797 5798 5799 5800 5801 5802 5803 5803 5804 5805 5806 5806 5808 5805 5804 5804 5804 5805 5805 5805 5806 5806 5807 5807 5807 5807 5807 5807 5807 5808 5808 5807 5807 5806 5806 5805 5805 5804 5804 5804 5803 5802 5802
5790 5792 5793 5795 5796 5797 5798 5799 5799 5800 5800 5800 5801 5804 5801 5800 5800 5801 5801 5802 5802 5802 5803 5803 5803 5804 5804 5804 5804 5804 5804 5804 5804 5803 5803 5803 5802 5802 5802 5801 5801 5800 5800 5799
5785 5787 5788 5790 5792 5792 5793 5794 5794 5795 5796 5796 5797 5800 5796 5796 5797 5797 5798 5798 5798 5799 5799 5799 5799 5800 5800 5800 5800 5800 5800 5800 5800 5800 5799 5799 5799 5798 5798 5798 5797 5797 5796 5796
5779 5781 5784 5786 5786 5786 5787 5788 5789 5790 5790 5791 5792 5793 5793 5792 5793 5793 5794 5794 5794 5795 5795 5795 5795 5795 5795 5796 5796 5796 5796 5796 5796 5796 5796 5795 5795 5795 5794 5794 5794 5793 5793 5792
5773 5776 5777 5779 5780 5781 5782 5783 5784 5785 5786 5787 5787 5788 5788 5788 5789 5789 5790 5791 5791 5791 5791 5791 5791 5791 5791 5791 5791 5791 5792 5792 5792 5792 5792 5791 5791 5791 5790 5790 5790 5789 5789 5788
5767 5770 5771 5773 5774 5775 5777 5778 5779 5780 5781 5781 5782 5783 5783 5784 5785 5785 5786 5786 5787 5787 5788 5788 5787 5787 5787 5787 5787 5787 5787 5787 5788 5787 5787 5787 5787 5786 5786 5786 5786 5785 5785 5784
5761 5764 5766 5768 5769 5770 5771 5773 5774 5774 5775 5777 5778 5779 5779 5779 5780 5781 5782 5782 5783 5783 5783 5783 5783 5783 5783 5783 5783 5783 5783 5783 5783 5782 5782 5782 5782 5781 5781 5781 5781 5781 5780 5779
5755 5757 5759 5761 5763 5764 5768 5767 5768 5769 5770 5771 5772 5773 5774 5775 5776 5776 5777 5778 5778 5778 5779 5778 5778 5779 5778 5778 5778 5778 5778 5778 5778 5778 5778 5777 5777 5777 5777 5776 5776 5776 5776 5775
5748 5751 5753 5755 5756 5758 5760 5761 5762 5764 5765 5765 5767 5768 5769 5770 5771 5771 5772 5772 5773 5773 5773 5774 5774 5774 5774 5773 5773 5773 5773 5773 5773 5773 5773 5773 5772 5772 5772 5772 5771 5771 5771 5770
5742 5744 5747 5749 5750 5752 5754 5755 5756 5759 5759 5760 5761 5762 5763 5765 5766 5766 5766 5766 5767 5768 5768 5768 5769 5769 5769 5769 5769 5768 5768 5768 5768 5768 5768 5768 5767 5767 5767 5766 5766 5765 5765 5764
5735 5737 5740 5742 5744 5745 5747 5748 5751 5753 5753 5754 5754 5756 5757 5758 5760 5760 5760 5761 5761 5762 5762 5763 5763 5763 5763 5763 5763 5763 5763 5763 5763 5763 5763 5762 5762 5761 5761 5760 5760 5759 5759 5758
5729 5731 5733 5735 5737 5740 5740 5742 5744 5745 5746 5747 5748 5749 5750 5751 5752 5753 5754 5755 5756 5756 5757 5757 5758 5758 5758 5758 5758 5758 5758 5758 5758 5757 5757 5757 5756 5756 5755 5755 5754 5753 5752 5751
5722 5725 5726 5729 5731 5732 5733 5734 5736 5738 5739 5740 5741 5743 5744 5745 5746 5747 5748 5749 5750 5750 5751 5751 5752 5752 5752 5752 5752 5752 5752 5752 5752 5751 5751 5751 5750 5750 5750 5749 5748 5747 5746 5744
5716 5718 5720 5721 5722 5724 5726 5727 5729 5731 5732 5734 5735 5736 5738 5739 5740 5741 5743 5743 5744 5744 5745 5745 5746 5746 5746 5746 5746 5746 5746 5745 5745 5745 5745 5745 5744 5744 5743 5743 5742 5741 5740 5738
5710 5711 5713 5714 5716 5717 5719 5721 5723 5724 5726 5727 5729 5730 5732 5733 5734 5735 5736 5737 5738 5738 5738 5739 5739 5739 5740 5740 5740 5740 5739 5739 5739 5739 5739 5738 5738 5738 5737 5736 5735 5734 5733 5732
5703 5705 5707 5708 5710 5712 5713 5714 5716 5718 5719 5721 5722 5724 5725 5727 5728 5729 5730 5730 5731 5731 5732 5732 5732 5733 5733 5733 5733 5733 5733 5733 5733 5732 5732 5732 5731 5731 5730 5729 5729 5728 5727 5726